Grand Rapids, MI

4:44 PM EST on December 16, 2017 (GMT -0500)
Gerald R. Ford International

Weather History for KGRR - May, 2013

Change the Weather History Date:

Tuesday, May 14, 2013

  Actual Average Record
Temperature  
Mean Temperature 61 °F 58 °F  
Max Temperature 76 °F 69 °F 89 °F (1982)
Min Temperature 46 °F 47 °F 31 °F (1973)
Degree Days  
Heating Degree Days 4 8  
Month to date heating degree days 85 137  
Since 1 July heating degree days 6207 6342  
Cooling Degree Days 0 1  
Month to date cooling degree days 20 10  
Year to date cooling degree days 23 18  
Growing Degree Days 10 (Base 50)    
Moisture  
Dew Point 42 °F    
Average Humidity 51    
Maximum Humidity 63    
Minimum Humidity 39    
Precipitation  
Precipitation 0.01 in 0.13 in 1.26 in (1945)
Month to date precipitation 0.58 1.76  
Year to date precipitation 19.68 11.36  
Snow  
Snow 0.00 in 0.00 in T in (2016)
Month to date snowfall 0.0 0.0  
Since 1 July snowfall 66.0 74.9  
Snow Depth 0.00 in    
Sea Level Pressure  
Sea Level Pressure 29.84 in    
Wind  
Wind Speed 9 mph (South)    
Max Wind Speed 21 mph    
Max Gust Speed 26 mph    
Visibility 10 miles    
Events Rain    
T = Trace of Precipitation, MM = Missing Value Source: NWS Daily Summary

Daily Weather History Graph

Daily Weather History Graph

Search for Another Location

Airport or City:

Trip Planner

Search our weather history database for the weather conditions in past years. The results will help you decide how hot, cold, wet, or windy it might be!

Date:

Astronomy

May. 14, 2013 Rise Set
Actual Time 6:19 AM EDT 8:57 PM EDT
Civil Twilight 5:47 AM EDT 9:30 PM EDT
Nautical Twilight 5:06 AM EDT 10:10 PM EDT
Astronomical Twilight 4:20 AM EDT 10:57 PM EDT
Moon 9:59 AM EDT (5/14) 12:05 AM EDT (5/14)
Length of Visible Light 15h 42m
Length of Day
14h 37m
Waxing Crescent, 19% of the Moon is Illuminated
May 14
Waxing Crescent
May 18
First Quarter
May 25
Full
May 31
Last Quarter
Jun 8
New

Hourly Weather History & Observations

Time (EDT) Temp. Windchill Dew Point Humidity Pressure Visibility Wind Dir Wind Speed Gust Speed Precip Events Conditions
12:53 AM 45.0 °F 42.6 °F 30.0 °F 56% 30.08 in 10.0 mi SSE 4.6 mph - N/A   Overcast
1:53 AM 46.9 °F - 28.9 °F 50% 30.06 in 10.0 mi SE 3.5 mph - N/A   Overcast
2:53 AM 46.9 °F - 27.0 °F 46% 30.03 in 10.0 mi SSE 5.8 mph - N/A   Overcast
3:53 AM 46.9 °F - 28.9 °F 50% 30.02 in 10.0 mi ESE 3.5 mph - 0.00 in   Overcast
4:53 AM 48.9 °F - 27.0 °F 43% 29.98 in 10.0 mi SSE 10.4 mph - 0.00 in   Overcast
5:53 AM 50.0 °F - 27.0 °F 41% 29.96 in 10.0 mi SSE 11.5 mph - N/A   Mostly Cloudy
6:53 AM 50.0 °F - 28.0 °F 43% 29.94 in 10.0 mi SSE 10.4 mph - N/A   Overcast
7:53 AM 51.1 °F - 30.9 °F 46% 29.90 in 10.0 mi South 11.5 mph - N/A   Mostly Cloudy
8:53 AM 55.9 °F - 34.0 °F 44% 29.86 in 10.0 mi South 15.0 mph 23.0 mph N/A   Mostly Cloudy
9:53 AM 60.1 °F - 37.0 °F 42% 29.83 in 10.0 mi South 16.1 mph - N/A   Mostly Cloudy
10:53 AM 64.0 °F - 39.9 °F 41% 29.81 in 10.0 mi SSW 15.0 mph 20.7 mph N/A   Mostly Cloudy
11:53 AM 69.1 °F - 44.1 °F 40% 29.80 in 10.0 mi SSW 12.7 mph - N/A   Scattered Clouds
12:53 PM 72.0 °F - 46.9 °F 41% 29.81 in 10.0 mi West 13.8 mph 20.7 mph N/A   Scattered Clouds
1:53 PM 73.9 °F - 50.0 °F 43% 29.78 in 10.0 mi West 8.1 mph 23.0 mph N/A   Partly Cloudy
2:53 PM 75.0 °F - 52.0 °F 44% 29.78 in 10.0 mi WSW 11.5 mph 18.4 mph N/A   Partly Cloudy
3:53 PM 75.9 °F - 52.0 °F 43% 29.78 in 10.0 mi West 15.0 mph 19.6 mph N/A   Mostly Cloudy
4:53 PM 73.0 °F - 51.1 °F 46% 29.80 in 10.0 mi West 13.8 mph - N/A   Mostly Cloudy
5:53 PM 72.0 °F - 51.1 °F 48% 29.78 in 10.0 mi West 9.2 mph - N/A   Mostly Cloudy
6:53 PM 71.1 °F - 52.0 °F 51% 29.75 in 10.0 mi WSW 4.6 mph - N/A   Mostly Cloudy
7:53 PM 70.0 °F - 53.1 °F 55% 29.74 in 10.0 mi SW 3.5 mph - 0.00 in   Mostly Cloudy
8:53 PM 66.0 °F - 53.1 °F 63% 29.70 in 10.0 mi South 5.8 mph - N/A   Mostly Cloudy
9:53 PM 66.0 °F - 53.1 °F 63% 29.70 in 10.0 mi SSE 3.5 mph - N/A   Mostly Cloudy
10:53 PM 62.1 °F - 53.1 °F 72% 29.70 in 10.0 mi ENE 3.5 mph - 0.00 in Rain Light Rain
11:53 PM 60.1 °F - 53.1 °F 78% 29.66 in 10.0 mi SSE 8.1 mph - 0.00 in   Mostly Cloudy